Home   Weather   Israel   Tel Aviv   Past weeks
Flag for Israel

Past Weather in Tel Aviv, Israel — Yesterday and Last 2 Weeks

Currently: 68 °F. Sunny. (Weather station: Ben Gurion International Airport, Israel). See more current weather

Past Weather in Tel Aviv — Graph

°F

Tel Aviv Temperature Yesterday

Maximum temperature yesterday: 84 °F (at 3:50 pm)
Minimum temperature yesterday: 57 °F (at 5:20 am)
Average temperature yesterday: 70 °F

High & Low Weather Summary for the Past Weeks

 TemperatureHumidityPressure
High97 °F (Apr 6, 2:50 pm)100% (Apr 16, 5:20 am)30.18 "Hg (Apr 16, 5:20 am)
Low50 °F (Apr 3, 5:20 am)7% (Apr 6, 1:50 pm)29.74 "Hg (Apr 6, 3:50 pm)
Average65 °F55%30.01 "Hg
* Reported Apr 2 8:20 am — Apr 17 8:20 am, Tel Aviv. Weather by CustomWeather, © 2021

Note: Actual official high and low records may vary slightly from our data, if they occured in-between our weather recording intervals... More about our weather records

Tel Aviv Weather History for the Previous 24 Hours

Scroll right to see more
 ConditionsComfort  
Time TempWeatherWind HumidityBarometerVisibility
8:20 am
Sat, Apr 17
64 °FSunny.2 mph73%29.95 "Hg10 mi
7:50 am63 °FSunny.2 mph68%29.95 "Hg10 mi
7:20 am61 °FSunny.1 mph68%29.95 "Hg10 mi
6:50 am59 °FSunny.2 mph72%29.95 "Hg10 mi
6:20 am59 °FSunny.2 mph68%29.95 "Hg10 mi
5:50 am59 °FClear.2 mph63%29.95 "Hg10 mi
5:20 am59 °FClear.5 mph72%29.95 "Hg10 mi
4:50 am59 °FClear.3 mph72%29.92 "Hg10 mi
4:20 am59 °FClear.3 mph72%29.92 "Hg10 mi
3:50 am61 °FClear.6 mph68%29.92 "Hg10 mi
3:20 am61 °FClear.6 mph68%29.92 "Hg10 mi
2:50 am61 °FClear.6 mph63%29.92 "Hg10 mi
2:20 am63 °FClear.6 mph59%29.95 "Hg10 mi
1:50 am61 °FClear.3 mph68%29.95 "Hg10 mi
1:20 am61 °FClear.2 mph68%29.95 "Hg10 mi
12:50 am63 °FClear.3 mph64%29.95 "Hg10 mi
12:20 am64 °FClear.5 mph60%29.95 "Hg10 mi
11:50 pm
Fri, Apr 16
64 °FClear.6 mph68%29.95 "Hg10 mi
11:20 pm66 °FClear.2 mph64%29.95 "Hg10 mi
10:50 pm66 °FClear.5 mph68%29.95 "Hg10 mi
10:20 pm66 °FClear.1 mph68%29.95 "Hg10 mi
9:50 pm68 °FClear.5 mph60%29.95 "Hg10 mi
9:20 pm70 °FClear.5 mph53%29.92 "Hg10 mi
8:50 pm68 °FClear.5 mph60%29.92 "Hg10 mi
8:20 pm72 °FClear.7 mph53%29.92 "Hg10 mi
7:50 pm72 °FClear.7 mph47%29.92 "Hg10 mi
7:20 pm79 °FClear.8 mph26%29.89 "Hg10 mi
6:50 pm81 °FSunny.8 mph24%29.89 "Hg10 mi
6:20 pm81 °FSunny.13 mph23%29.89 "Hg10 mi
5:50 pm82 °FSunny.18 mph21%29.89 "Hg10 mi
5:20 pm82 °FSunny.15 mph20%29.89 "Hg10 mi
4:50 pm82 °FSunny.15 mph19%29.89 "Hg10 mi
4:20 pm84 °FSunny.20 mph20%29.89 "Hg10 mi
3:50 pm84 °FSunny.15 mph23%29.89 "Hg10 mi
3:20 pm81 °FSunny.15 mph28%29.89 "Hg10 mi
2:50 pm82 °FSunny.15 mph35%29.89 "Hg10 mi
2:20 pm82 °FSunny.12 mph37%29.89 "Hg10 mi
1:50 pm81 °FPassing clouds.8 mph42%29.89 "HgN/A
1:20 pm79 °FPassing clouds.12 mph48%29.92 "HgN/A
12:50 pm77 °FSunny.14 mph54%29.92 "Hg10 mi
12:20 pm77 °FSunny.14 mph54%29.92 "Hg10 mi
11:50 am77 °FSunny.12 mph54%29.92 "Hg10 mi
11:20 am77 °FPassing clouds.7 mph54%29.92 "HgN/A
10:50 am77 °FSunny.2 mph44%29.95 "Hg10 mi
10:20 am73 °FSunny.2 mph57%29.95 "Hg10 mi
9:50 am68 °FClear.2 mph69%29.95 "Hg5 mi
9:20 am64 °FClear.3 mph83%29.95 "Hg4 mi
Weather by CustomWeather, © 2021

See weather overview